This demonstration page uses our WeatherBlox Daily Observations layout. Learn more.

Left ArrowRight Arrow

Hourly Observations for June 10, 2018

Temp ( °F °C ) Dew Point ( °F °C ) Humidity (%) Winds ( mph kmh ) Pressure ( in mb ) Visibility ( mi km ) Precip ( " mm )
12:53 am 00:53 Clear 80 26.7 67 19.4 64 64 VRB 5 7 29.71 1006 10 16 0.00 0.00
1:53 am 01:53 Mostly Clear 80 26.7 67 19.4 64 64 S 13 20 29.70 1006 10 16 0.00 0.00
2:53 am 02:53 Clear 77 25 67 19.4 71 71 S 12 19 29.69 1005 10 16 0.00 0.00
3:53 am 03:53 Clear 76 24.4 66 18.9 72 72 S 12 19 29.67 1005 10 16 0.00 0.00
4:53 am 04:53 Clear 74 23.3 66 18.9 76 76 S 7 11 29.69 1005 10 16 0.00 0.00
5:53 am 05:53 Clear 73 22.8 66 18.9 79 79 S 9 15 29.67 1005 10 16 0.00 0.00
6:53 am 06:53 Sunny 73 22.8 65 18.3 76 76 S 9 15 29.68 1005 10 16 0.00 0.00
7:53 am 07:53 Sunny 74 23.3 65 18.3 74 74 S 10 17 29.68 1005 10 16 0.00 0.00
8:53 am 08:53 Sunny 78 25.6 66 18.9 67 67 SSE 7 11 29.70 1006 10 16 0.00 0.00
9:53 am 09:53 Sunny 81 27.2 66 18.9 61 61 S 8 13 29.68 1005 10 16 0.00 0.00
10:53 am 10:53 Sunny 84 28.9 66 18.9 55 55 SE 9 15 29.68 1005 10 16 0.00 0.00
11:53 am 11:53 Sunny 86 30 68 20 55 55 SE 13 20 29.67 1005 10 16 0.00 0.00
12:53 pm 12:53 Sunny 90 32.2 67 19.4 47 47 SSE 16 26 29.64 1004 10 16 0.00 0.00
1:53 pm 13:53 Sunny 93 33.9 66 18.9 41 41 SSE 14 22 29.60 1002 10 16 0.00 0.00
2:53 pm 14:53 Sunny 95 35 66 18.9 39 39 S 17 28 29.57 1002 10 16 0.00 0.00
3:53 pm 15:53 Sunny 97 36.1 65 18.3 35 35 S 17 28 29.55 1001 10 16 0.00 0.00
4:53 pm 16:53 Sunny 98 36.7 62 16.7 31 31 S 21 33 29.53 1000 10 16 0.00 0.00
5:53 pm 17:53 Sunny 95 35 61 16.1 32 32 S 12 19 29.54 1000 10 16 0.00 0.00
6:53 pm 18:53 Sunny 93 33.9 62 16.7 36 36 S 10 17 29.54 1000 10 16 0.00 0.00
7:53 pm 19:53 Sunny 91 32.8 64 17.8 41 41 SSE 12 19 29.54 1000 10 16 0.00 0.00
8:53 pm 20:53 Sunny 88 31.1 66 18.9 48 48 SSE 12 19 29.54 1001 10 16 0.00 0.00
9:53 pm 21:53 Clear 86 30 66 18.9 51 51 SSE 10 17 29.56 1001 10 16 0.00 0.00
10:53 pm 22:53 Clear 84 28.9 66 18.9 55 55 SSE 12 19 29.57 1001 10 16 0.00 0.00
11:53 pm 23:53 Clear 84 28.9 65 18.3 53 53 SSE 16 26 29.56 1001 10 16 0.00 0.00

Powered by AerisWeather